FENGYUN 1C DEB, 30003

Orbit data source: Space-Track

FENGYUN 1C DEB, 30003 is space debris in SSO originally from a launch on Mon, 10 May 1999 UTC launched from the Taiyaun Space Center, China (TSC). Fengyun 1C debris stems from the Chinese weather satellite Fengyun-1C, which was intentionally destroyed by a Chinese anti-satellite missile in 2007. This event dramatically increased the amount of space debris, with thousands of trackable fragments posing hazards to satellites and human spaceflight. The Fengyun 1C debris cloud has become a focal point in discussions about space sustainability and the need for international regulations to prevent the creation of new debris.

Loading next visibility...
Identifier
30003, 1999-025MC
Orbit
SSO
Country
Flag of CNCN / PRC
Related business
Manufacturer
Unknown
Mission
Spacecraft
Bus & Motor
Unknown
Mass
Unknown
Launch date (UTC)
1999-05-10 (27 years ago)
Launch vehicle
Unknown
Launch site
Taiyaun Space Center, China (TSC)
Object type
Payload
Rocket body
Debris
Shape & HBR
Unknown shape, 0.1 m
Radar Cross Section
Medium (>0.1 m² and <1 m²)

Expand to show TLE details & history
Last TLE update: 13 hours ago

TLE from 13 hours ago
0 FENGYUN 1C DEB
1 30003U 99025MC  26263.47803062  .00000202  00000-0  19915-3 0  9992
2 30003  99.6057 249.9486 0143765  93.7844  28.9991 13.85837395993907
Epoch: 2026-09-20T11:28Z
TLE epoch observation values (Epoch: 2026-09-20T11:28:21.845Z)
Latitude
55.31525°
Longitude
-87.43508°
Altitude
860.639 km
Speed
7.474 km/s
True Right ascension
05h 36m 06s
True Declination
55° 09' 23"
Sunlit
Object was in daylight at epoch
Visualization orbit readout
Latitude
Unknown
Longitude
Unknown
Altitude
Unknown
Speed
Unknown
Apparent Right ascension
Unknown
Apparent Declination
Unknown
Sunlit
N/A
Visualization observer readout
Local Sidereal Time
17:09:23
Azimuth
Unknown
Elevation
Unknown
Doppler factor
Unknown
Orbital elements
Apogee altitude
1,045.719 km
Perigee altitude
835.286 km
Semi-major axis
7,318.64 km
Eccentricity
0.01438
Inclination
99.6057°
RAAN
249.9486°
Arg. of periapsis
93.7844°
True anomaly
29.81048°
Mean anomaly
28.9991°
Eccentric anomaly
29.40351°
Mean motion
3.46655 °/min
Orbital period
103.85 mins
BSTAR
0.00019915
Loading maneuver chart data...
Computing Atmospheric mass density...

Documentation

Showing up to 5 results
|